CW6261 Weather Reports


Display with metric or nautical units.
time (UTC)temp
F
wind
direction
speed
MPH
gust
MPH
rain 1hr
in
rain 24hr
in
rain mn
in
humidity
%
barometer
mb
20260905135702 79 206 2.0 3.0 0.00 0.00 0.00 87 101.3
20260905135202 79 236 2.0 4.0 0.00 0.00 0.00 88 101.3
20260905134702 79 214 2.0 3.0 0.00 0.00 0.00 89 101.3
20260905132702 78 197 2.0 4.0 0.00 0.00 0.00 91 101.3
20260905132202 77 185 2.0 4.0 0.00 0.00 0.00 92 101.3
20260905131702 77 205 3.0 4.0 0.00 0.00 0.00 92 101.3
20260905131202 77 182 1.0 3.0 0.00 0.00 0.00 93 101.3
20260905130702 77 189 1.0 3.0 0.00 0.00 0.00 93 101.3
20260905130202 76 180 1.0 3.0 0.00 0.00 0.00 94 101.2
20260905125702 76 196 2.0 3.0 0.00 0.00 0.00 94 101.2
20260905125202 76 211 3.0 3.0 0.00 0.00 0.00 94 101.2
20260905124702 76 167 2.0 2.0 0.00 0.00 0.00 94 101.2
20260905123702 76 180 1.0 3.0 0.00 0.00 0.00 94 101.2
20260905123202 76 216 0.0 2.0 0.00 0.00 0.00 94 101.2
20260905122702 76 225 1.0 2.0 0.00 0.00 0.00 94 101.2
20260905122202 75 189 2.0 4.0 0.00 0.00 0.00 94 101.2
20260905121702 75 198 1.0 2.0 0.00 0.00 0.00 94 101.2
20260905121202 75 232 0.0 2.0 0.00 0.00 0.00 94 101.2
20260905120202 75 218 1.0 3.0 0.00 0.00 0.00 94 101.2
20260905115702 75 220 2.0 3.0 0.00 0.00 0.00 94 101.2
20260905115203 75 225 1.0 3.0 0.00 0.00 0.00 94 101.2
20260905113701 75 312 0.0 2.0 0.00 0.00 0.00 94 101.2
20260905113201 75 177 0.0 2.0 0.00 0.00 0.00 94 101.2
20260905112702 75 29 1.0 2.0 0.00 0.00 0.00 94 101.2
20260905112202 75 202 2.0 2.0 0.00 0.00 0.00 94 101.2
20260905111702 75 233 0.0 2.0 0.00 0.00 0.00 93 101.2
20260905110702 75 223 3.0 3.0 0.00 0.00 0.00 93 101.2
20260905110202 76 103 0.0 2.0 0.00 0.00 0.00 92 101.1
20260905105702 76 172 1.0 2.0 0.00 0.00 0.00 92 101.1
20260905105202 76 128 0.0 2.0 0.00 0.00 0.00 92 101.1
20260905103702 76 233 0.0 3.0 0.00 0.00 0.00 92 101.2
20260905103202 76 184 2.0 4.0 0.00 0.00 0.00 91 101.1
20260905102202 77 216 1.0 2.0 0.00 0.00 0.00 90 101.2
20260905101701 77 296 1.0 3.0 0.00 0.00 0.00 90 101.2
20260905101202 77 194 2.0 3.0 0.00 0.00 0.00 90 101.2
20260905100702 77 246 1.0 2.0 0.00 0.00 0.00 90 101.2
20260905100203 77 233 1.0 3.0 0.00 0.00 0.00 89 101.1
20260905095702 77 233 2.0 3.0 0.00 0.00 0.00 89 101.1
20260905095202 77 264 1.0 4.0 0.00 0.00 0.00 90 101.1
20260905094702 77 196 2.0 4.0 0.00 0.00 0.00 89 101.1
20260905094202 77 240 1.0 4.0 0.00 0.00 0.00 89 101.1
20260905093702 77 265 4.0 4.0 0.00 0.00 0.00 89 101.1
20260905093202 77 195 2.0 3.0 0.00 0.00 0.00 89 101.1
20260905092702 77 217 2.0 4.0 0.00 0.00 0.00 88 101.2
20260905092202 78 216 4.0 5.0 0.00 0.00 0.00 88 101.2
20260905091703 78 229 1.0 4.0 0.00 0.00 0.00 88 101.2
20260905090701 78 239 4.0 6.0 0.00 0.00 0.00 87 101.2
20260905090202 78 260 3.0 7.0 0.00 0.00 0.00 87 101.1
20260905085702 78 209 2.0 6.0 0.00 0.00 0.00 87 101.1
20260905085202 78 206 2.0 6.0 0.00 0.00 0.00 87 101.1
20260905084702 78 275 2.0 5.0 0.00 0.00 0.00 86 101.2
20260905084202 78 170 1.0 4.0 0.00 0.00 0.00 86 101.2
20260905083702 78 207 3.0 6.0 0.00 0.00 0.00 86 101.2
20260905083202 78 183 3.0 6.0 0.00 0.00 0.00 86 101.2
20260905082702 79 211 3.0 5.0 0.00 0.00 0.00 86 101.2
20260905082203 79 202 2.0 6.0 0.00 0.00 0.00 86 101.2
20260905081702 79 189 2.0 7.0 0.00 0.00 0.00 85 101.2
20260905080702 79 203 4.0 6.0 0.00 0.00 0.00 85 101.2
20260905075702 79 245 3.0 4.0 0.00 0.00 0.00 84 101.2
20260905075201 79 220 5.0 5.0 0.00 0.00 0.00 84 101.2
20260905074702 79 239 2.0 5.0 0.00 0.00 0.00 84 101.2
20260905074202 79 207 2.0 4.0 0.00 0.00 0.00 84 101.2
20260905073701 79 208 2.0 6.0 0.00 0.00 0.00 84 101.2
20260905073202 79 228 3.0 4.0 0.00 0.00 0.00 84 101.2
20260905072702 79 201 3.0 7.0 0.00 0.00 0.00 83 101.2
20260905072202 79 223 4.0 6.0 0.00 0.00 0.00 83 101.2
20260905070702 79 206 2.0 3.0 0.00 0.00 0.00 82 101.2
20260905070202 79 204 2.0 5.0 0.00 0.00 0.00 81 101.2
20260905065202 79 210 2.0 4.0 0.00 0.00 0.00 80 101.2
20260905064701 79 201 2.0 5.0 0.00 0.00 0.00 80 101.2
20260905063201 79 181 2.0 3.0 0.00 0.00 0.00 79 101.2
20260905062702 79 208 2.0 3.0 0.00 0.00 0.00 79 101.3
20260905062202 80 207 2.0 5.0 0.00 0.00 0.00 78 101.3
20260905061702 80 201 3.0 5.0 0.00 0.00 0.00 78 101.3
20260905061202 80 195 2.0 4.0 0.00 0.00 0.00 78 101.3
20260905060702 80 220 1.0 4.0 0.00 0.00 0.00 77 101.3
20260905060203 80 174 2.0 5.0 0.00 0.00 0.00 77 101.2
20260905055202 80 195 1.0 7.0 0.00 0.00 0.00 76 101.2
20260905054702 80 209 4.0 5.0 0.00 0.00 0.00 76 101.2
20260905054202 80 187 2.0 6.0 0.00 0.00 0.00 76 101.2
20260905053701 80 156 2.0 5.0 0.00 0.00 0.00 76 101.2
20260905053202 81 231 2.0 7.0 0.00 0.00 0.00 75 101.2
20260905052702 81 200 4.0 6.0 0.00 0.00 0.00 75 101.3
20260905052202 81 193 1.0 4.0 0.00 0.00 0.00 74 101.3
20260905051702 81 191 6.0 6.0 0.00 0.00 0.00 74 101.3
20260905051202 81 193 1.0 4.0 0.00 0.00 0.00 73 101.3
20260905050702 81 184 2.0 5.0 0.00 0.00 0.00 73 101.3
20260905045202 81 229 2.0 2.0 0.00 0.00 0.00 72 101.2
20260905044702 81 197 1.0 5.0 0.00 0.00 0.00 72 101.2
20260905043202 81 126 0.0 5.0 0.00 0.00 0.00 71 101.2
20260905042702 82 219 3.0 4.0 0.00 0.00 0.00 70 101.2
20260905042202 82 185 1.0 6.0 0.00 0.00 0.00 70 101.2
20260905041703 82 189 4.0 8.0 0.00 0.00 0.00 70 101.3
20260905041202 82 167 3.0 5.0 0.00 0.00 0.00 70 101.3
20260905040701 82 136 1.0 4.0 0.00 0.00 0.00 69 101.3
20260905035701 82 141 0.0 5.0 0.00 0.00 0.00 69 101.2
20260905035202 82 221 1.0 1.0 0.00 0.00 0.00 68 101.2
20260905034702 82 339 1.0 2.0 0.00 0.00 0.00 68 101.2
20260905034202 82 181 0.0 3.0 0.00 0.00 0.00 67 101.2
20260905033702 82 220 1.0 2.0 0.00 0.00 0.00 66 101.2
20260905033201 83 154 0.0 5.0 0.00 0.00 0.00 66 101.2
20260905032702 83 194 0.0 4.0 0.00 0.00 0.00 66 101.2
20260905032202 83 213 1.0 2.0 0.00 0.00 0.00 66 101.2
20260905031702 83 138 1.0 4.0 0.00 0.00 0.00 66 101.2
20260905031203 83 149 0.0 3.0 0.00 0.00 0.00 65 101.2
20260905030702 83 166 0.0 4.0 0.00 0.00 0.00 65 101.2
20260905030202 83 169 1.0 3.0 0.00 0.00 0.00 65 101.2
20260905025702 83 223 2.0 2.0 0.00 0.00 0.00 65 101.2
20260905024702 83 269 0.0 4.0 0.00 0.00 0.00 66 101.2
20260905024202 83 179 2.0 5.0 0.00 0.00 0.00 67 101.2
20260905023702 83 187 0.0 3.0 0.00 0.00 0.00 67 101.2
20260905023202 83 167 0.0 5.0 0.00 0.00 0.00 67 101.2
20260905021702 84 215 2.0 4.0 0.00 0.00 0.00 67 101.2
20260905021202 84 178 1.0 4.0 0.00 0.00 0.00 67 101.2
20260905020203 84 154 0.0 8.0 0.00 0.00 0.00 66 101.1
20260905015202 84 148 0.0 7.0 0.00 0.00 0.00 66 101.1
20260905014702 84 154 0.0 4.0 0.00 0.00 0.00 65 101.1
20260905013702 84 124 1.0 5.0 0.00 0.00 0.00 65 101.1
20260905013202 84 159 1.0 4.0 0.00 0.00 0.00 65 101.1
20260905012702 85 191 2.0 4.0 0.00 0.00 0.00 65 101.1
20260905012202 84 210 1.0 6.0 0.00 0.00 0.00 65 101.1
20260905011702 85 186 0.0 2.0 0.00 0.00 0.00 65 101.1
20260905010702 85 201 2.0 4.0 0.00 0.00 0.00 65 101.1
20260905010202 85 290 0.0 3.0 0.00 0.00 0.00 66 101.1
20260905005702 85 127 1.0 3.0 0.00 0.00 0.00 66 101.1
20260905005202 85 116 0.0 1.0 0.00 0.00 0.00 65 101.1
20260905004702 86 242 0.0 2.0 0.00 0.00 0.00 64 101.1
20260905004202 86 107 1.0 4.0 0.00 0.00 0.00 64 101.1
20260905003702 86 135 0.0 2.0 0.00 0.00 0.00 63 101.1
20260905002702 86 154 0.0 5.0 0.00 0.00 0.00 62 101.1
20260905002202 86 179 1.0 4.0 0.00 0.00 0.00 62 101.1
20260905001702 86 147 1.0 5.0 0.00 0.00 0.00 62 101.1
20260905001202 86 160 4.0 4.0 0.00 0.00 0.00 62 101.1
20260905000702 87 114 1.0 2.0 0.00 0.00 0.00 62 101.1
20260904235701 87 148 1.0 4.0 0.00 0.00 0.00 61 101.0
20260904235202 87 106 0.0 3.0 0.00 0.00 0.00 61 101.0
20260904234702 87 8 1.0 4.0 0.00 0.00 0.00 60 101.0
20260904234202 87 112 1.0 9.0 0.00 0.00 0.00 60 101.0
20260904233703 88 118 2.0 11.0 0.00 0.00 0.00 59 101.0
20260904233202 88 95 2.0 4.0 0.00 0.00 0.00 58 101.0
20260904232702 88 166 1.0 5.0 0.00 0.00 0.00 58 101.0
20260904232202 88 200 0.0 5.0 0.00 0.00 0.00 58 101.0
20260904231702 88 108 2.0 5.0 0.00 0.00 0.00 58 101.1
20260904231202 88 216 2.0 8.0 0.00 0.00 0.00 58 101.1
20260904230702 88 129 2.0 4.0 0.00 0.00 0.00 57 101.1
20260904230202 89 184 1.0 7.0 0.00 0.00 0.00 56 101.0
20260904225702 91 152 3.0 4.0 0.00 0.00 0.00 49 101.0
20260904225202 92 205 8.0 11.0 0.00 0.00 0.00 42 101.0
20260904224202 93 179 1.0 4.0 0.00 0.00 0.00 42 101.0
20260904223702 92 238 4.0 6.0 0.00 0.00 0.00 42 101.0
20260904223202 91 174 2.0 5.0 0.00 0.00 0.00 43 101.1
20260904222702 92 166 2.0 10.0 0.00 0.00 0.00 42 101.1
20260904221702 91 188 5.0 5.0 0.00 0.00 0.00 46 101.1
20260904221202 92 217 1.0 4.0 0.00 0.00 0.00 46 101.1
20260904220702 92 198 4.0 10.0 0.00 0.00 0.00 43 101.1
20260904220202 91 176 3.0 4.0 0.00 0.00 0.00 42 101.0
20260904215702 92 220 1.0 6.0 0.00 0.00 0.00 44 101.0
20260904215202 92 185 1.0 8.0 0.00 0.00 0.00 40 101.0
20260904214702 91 211 1.0 2.0 0.00 0.00 0.00 38 101.1
20260904214202 93 183 2.0 8.0 0.00 0.00 0.00 37 101.1
20260904213202 92 252 2.0 6.0 0.00 0.00 0.00 39 101.1
20260904212703 92 190 1.0 8.0 0.00 0.00 0.00 38 101.1
20260904212202 92 250 3.0 7.0 0.00 0.00 0.00 40 101.1
20260904211701 92 198 4.0 6.0 0.00 0.00 0.00 39 101.1
20260904211202 92 181 5.0 12.0 0.00 0.00 0.00 38 101.1
20260904210702 91 141 0.0 4.0 0.00 0.00 0.00 38 101.1
20260904210202 91 188 3.0 6.0 0.00 0.00 0.00 37 101.1
20260904205702 91 178 5.0 7.0 0.00 0.00 0.00 38 101.1
20260904204702 90 236 2.0 5.0 0.00 0.00 0.00 43 101.1
20260904204202 90 188 5.0 8.0 0.00 0.00 0.00 41 101.1
20260904203702 90 130 1.0 8.0 0.00 0.00 0.00 42 101.1
20260904203202 88 205 3.0 6.0 0.00 0.00 0.00 44 101.2
20260904202702 90 185 2.0 9.0 0.00 0.00 0.00 46 101.2
20260904202201 90 163 2.0 4.0 0.00 0.00 0.00 47 101.2
20260904201702 91 253 4.0 8.0 0.00 0.00 0.00 47 101.2
20260904201202 91 203 6.0 8.0 0.00 0.00 0.00 46 101.2
20260904195702 89 206 8.0 9.0 0.00 0.00 0.00 48 101.2
20260904195202 89 227 7.0 10.0 0.00 0.00 0.00 50 101.2
20260904194702 88 198 6.0 7.0 0.00 0.00 0.00 55 101.2
20260904193702 88 206 4.0 9.0 0.00 0.00 0.00 56 101.2
20260904193201 89 189 4.0 8.0 0.00 0.00 0.00 57 101.3
20260904192702 88 210 1.0 8.0 0.00 0.00 0.00 58 101.3
20260904192202 87 256 1.0 7.0 0.00 0.00 0.00 59 101.3
20260904191702 87 214 7.0 9.0 0.00 0.00 0.00 60 101.3
20260904191202 87 199 4.0 12.0 0.00 0.00 0.00 60 101.3
20260904190702 86 224 3.0 5.0 0.00 0.00 0.00 62 101.3
20260904190202 85 239 2.0 7.0 0.00 0.00 0.00 63 101.3
20260904185702 85 210 5.0 9.0 0.00 0.00 0.00 62 101.3
20260904185202 86 194 5.0 8.0 0.00 0.00 0.00 63 101.3
20260904184702 86 168 1.0 8.0 0.00 0.00 0.00 63 101.3
20260904184202 85 156 3.0 4.0 0.00 0.00 0.00 64 101.3
20260904182702 86 223 1.0 8.0 0.00 0.00 0.00 64 101.3
20260904182202 86 197 6.0 6.0 0.00 0.00 0.00 65 101.3
20260904181702 85 117 1.0 6.0 0.00 0.00 0.00 65 101.3
20260904181204 85 230 1.0 3.0 0.00 0.00 0.00 67 101.3
20260904180701 85 185 4.0 6.0 0.00 0.00 0.00 67 101.3
20260904180202 84 300 0.0 3.0 0.00 0.00 0.00 67 101.3
20260904175702 85 217 2.0 6.0 0.00 0.00 0.00 67 101.3
20260904174702 85 194 5.0 8.0 0.00 0.00 0.00 67 101.3
20260904174202 85 215 3.0 6.0 0.00 0.00 0.00 68 101.3
20260904173702 85 187 2.0 6.0 0.00 0.00 0.00 67 101.3
20260904173202 86 205 4.0 7.0 0.00 0.00 0.00 66 101.4
20260904172702 85 233 3.0 6.0 0.00 0.00 0.00 67 101.4
20260904172202 85 223 2.0 4.0 0.00 0.00 0.00 67 101.4
20260904171202 85 236 3.0 6.0 0.00 0.00 0.00 67 101.4
20260904170203 86 176 1.0 5.0 0.00 0.00 0.00 66 101.4
20260904165702 86 138 2.0 6.0 0.00 0.00 0.00 66 101.4
20260904165203 86 225 1.0 5.0 0.00 0.00 0.00 65 101.4
20260904164202 85 242 5.0 7.0 0.00 0.00 0.00 68 101.4
20260904163702 83 252 4.0 6.0 0.00 0.00 0.00 71 101.4
20260904163202 83 233 3.0 6.0 0.00 0.00 0.00 71 101.4
20260904162702 84 146 0.0 5.0 0.00 0.00 0.00 71 101.4
20260904161702 84 235 3.0 5.0 0.00 0.00 0.00 72 101.4
20260904161202 84 221 4.0 8.0 0.00 0.00 0.00 71 101.4
20260904160702 85 241 4.0 6.0 0.00 0.00 0.00 70 101.4
20260904155702 83 201 4.0 6.0 0.00 0.00 0.00 72 101.3
20260904154702 83 265 3.0 5.0 0.00 0.00 0.00 74 101.3
20260904154202 84 259 2.0 4.0 0.00 0.00 0.00 74 101.3
20260904153701 83 291 2.0 5.0 0.00 0.00 0.00 74 101.3
20260904153202 82 257 4.0 4.0 0.00 0.00 0.00 76 101.3
20260904152702 81 179 2.0 6.0 0.00 0.00 0.00 76 101.3
20260904152202 82 215 4.0 6.0 0.00 0.00 0.00 77 101.3
20260904151702 82 238 4.0 5.0 0.00 0.00 0.00 77 101.3
20260904151202 82 221 2.0 6.0 0.00 0.00 0.00 77 101.3
20260904150702 81 244 3.0 9.0 0.00 0.00 0.00 79 101.3
20260904150202 81 309 2.0 6.0 0.00 0.00 0.00 80 101.3
20260904145702 81 219 4.0 8.0 0.00 0.00 0.00 80 101.3
20260904145201 81 183 1.0 6.0 0.00 0.00 0.00 81 101.3
20260904144202 80 202 3.0 6.0 0.00 0.00 0.00 83 101.3
20260904143701 80 239 4.0 6.0 0.00 0.00 0.00 84 101.3
20260904143202 80 244 2.0 6.0 0.00 0.00 0.00 84 101.3
20260904142702 80 248 7.0 7.0 0.00 0.00 0.00 84 101.3
20260904142202 80 247 3.0 4.0 0.00 0.00 0.00 84 101.3
20260904141202 79 259 3.0 5.0 0.00 0.00 0.00 86 101.3
20260904140702 79 249 3.0 4.0 0.00 0.00 0.00 86 101.3